Theta_e
332 332 332 335 335 339 339 335 330 324 325 329 328 334 335 338 344 344 341 343 346 343 339 337 338 338 339 341 343 345 346 347 348 347 348 350 352 354
333 331 332 335 336 334 333 333 332 328 324 330 329 330 336 339 344 346 343 342 341 340 339 336 336 336 337 338 339 341 341 342 342 343 343 343 344 346
333 332 333 333 333 333 332 331 331 329 326 329 332 330 332 333 336 339 344 343 340 338 337 336 334 334 334 335 336 338 338 339 339 340 341 341 341 343
332 331 331 332 329 329 330 329 330 330 326 325 328 330 330 334 334 334 339 342 340 341 338 335 333 331 331 331 331 332 332 333 335 336 337 339 341 342
330 329 329 328 327 328 328 328 329 331 329 327 326 329 330 332 333 335 337 339 342 344 339 336 333 333 332 330 329 326 325 325 327 328 330 332 335 339
329 329 329 328 328 329 329 328 328 327 328 326 325 325 327 331 330 330 332 335 335 341 343 340 340 340 336 333 332 329 324 321 321 321 322 322 325 330
328 328 328 330 333 331 330 328 326 323 323 322 322 323 323 324 324 327 327 331 333 335 337 340 343 346 346 337 339 335 328 324 322 319 318 318 319 322
324 325 326 329 328 329 330 330 329 324 322 321 321 319 320 322 324 325 326 325 323 331 331 333 337 339 343 343 339 333 329 325 323 320 318 318 318 319
323 324 324 326 327 327 327 327 327 327 327 325 320 320 320 320 322 322 324 325 325 330 330 330 334 335 341 346 334 329 326 323 322 321 319 318 317 316
323 323 323 324 326 326 326 325 325 323 323 326 324 324 324 325 325 325 324 325 327 329 331 326 332 331 337 341 332 327 323 321 321 319 317 316 314 313
321 322 323 324 323 320 321 320 317 317 321 320 321 320 320 320 322 323 323 320 318 319 325 328 329 330 333 337 339 327 323 318 318 319 317 316 312 311
320 323 322 320 316 313 316 313 313 316 317 318 318 318 319 320 320 321 321 319 318 316 321 322 326 328 327 336 340 337 329 317 315 315 315 313 310 321
317 319 320 316 312 307 307 309 312 314 314 314 315 316 317 318 319 321 322 321 319 318 322 324 325 328 331 330 332 333 332 321 321 316 312 311 310 322
315 319 319 312 308 306 309 310 307 310 316 317 317 317 317 318 319 321 322 322 324 323 324 325 325 329 330 328 329 329 332 330 327 324 322 317 312 313
314 315 312 308 306 311 312 310 313 319 318 316 317 318 318 318 320 320 322 323 323 325 327 327 327 329 332 330 327 326 324 326 332 331 329 322 322 319
312 309 309 310 311 312 315 318 319 319 318 318 318 320 318 316 321 320 319 321 320 321 325 326 328 331 331 332 332 327 324 325 327 334 334 330 330 326
302 315 317 318 317 317 317 317 319 319 318 318 317 318 315 313 316 322 321 321 320 320 323 328 333 335 335 333 332 332 331 325 329 329 335 334 332 331
312 314 312 311 310 311 311 310 310 310 312 312 313 315 314 312 313 319 324 324 323 325 326 328 331 331 332 332 330 332 335 335 337 334 330 327 332 336
312 310 309 308 306 305 306 306 305 305 307 307 308 310 315 313 312 314 316 323 324 325 326 324 323 323 321 321 318 312 328 334 333 335 337 335 334 336
310 307 306 305 303 301 300 300 300 300 300 302 304 306 309 314 312 312 314 315 321 324 324 325 325 323 324 324 323 314 307 319 331 335 333 324 321 319
306 306 303 301 297 296 295 295 295 294 295 298 300 301 306 309 313 312 312 310 313 317 318 319 321 321 324 324 318 314 314 309 312 321 326 324 322 323
306 303 301 298 295 293 292 292 291 291 292 294 296 299 304 306 313 313 312 311 314 315 315 318 319 320 318 318 313 311 312 314 311 309 308 309 317 319
303 304 299 295 294 292 291 290 290 290 290 291 292 296 301 306 315 314 312 311 311 313 314 314 318 318 316 314 314 313 312 312 312 310 307 307 307 307
Wind_Speed
7 7 6 7 5 6 7 5 7 11 11 7 4 6 5 4 4 4 5 8 12 14 16 9 10 9 9 15 17 15 17 16 17 14 14 14 15 13
7 7 7 8 7 5 6 6 5 7 9 8 5 5 5 6 6 6 8 14 13 16 17 15 15 15 17 16 14 16 16 17 17 14 15 14 13 13
9 8 10 9 8 6 5 6 6 4 9 10 8 5 5 7 7 8 8 8 8 16 20 20 16 16 15 16 15 16 15 17 17 13 15 14 14 13
10 7 10 8 9 7 6 8 7 8 6 12 11 6 5 6 8 8 9 7 6 12 16 14 17 17 16 18 14 16 17 19 16 14 16 15 15 13
7 10 11 10 10 9 8 7 7 6 6 7 10 6 5 4 6 7 8 9 7 13 16 18 16 17 16 17 18 19 17 17 15 15 15 14 14 14
9 10 11 10 11 11 9 8 7 7 8 7 7 9 5 6 4 6 9 6 7 8 11 12 11 12 15 17 15 15 15 17 16 15 14 14 14 14
10 10 11 13 18 16 9 9 8 7 7 6 7 6 4 5 5 4 5 8 9 5 9 8 5 6 7 11 13 13 15 18 16 15 15 14 15 14
11 11 10 15 15 16 17 18 13 9 10 7 8 8 10 5 4 5 7 7 9 3 5 7 3 7 7 4 9 13 14 16 16 15 16 15 15 15
10 10 10 10 14 12 14 15 15 16 18 11 9 9 9 6 6 7 7 8 10 8 5 11 5 9 7 6 11 12 13 12 13 15 16 16 16 14
10 12 12 13 13 12 11 11 10 8 7 7 9 11 10 10 9 10 11 10 10 8 6 13 9 10 6 6 11 11 10 12 14 15 15 16 17 16
11 12 11 12 14 11 8 7 7 7 7 11 14 15 17 17 17 9 9 9 12 10 7 10 10 9 5 8 7 14 13 13 15 17 17 16 16 15
11 10 12 10 12 7 3 6 9 10 8 9 10 12 15 16 22 16 12 13 11 11 9 11 10 4 4 6 9 7 7 12 14 15 15 15 15 7
9 10 8 14 13 8 9 6 8 6 11 7 9 10 11 12 12 13 15 14 13 16 8 7 7 6 7 6 1 3 4 2 3 4 11 15 18 13
10 9 10 14 16 15 10 10 10 8 5 7 9 11 14 15 15 14 17 17 15 17 12 12 10 8 7 4 5 2 2 3 4 5 6 9 16 17
8 11 19 19 13 9 8 7 6 5 6 8 11 12 14 16 19 16 15 16 17 16 14 15 12 11 8 8 4 4 4 4 3 5 6 7 7 7
9 7 11 15 12 6 6 5 5 6 8 10 11 14 15 14 10 6 7 9 10 11 16 16 17 15 11 10 8 5 4 5 5 6 7 6 8 8
10 6 4 5 6 7 8 8 8 7 9 10 11 13 15 14 12 5 5 5 6 8 9 11 16 15 12 9 7 8 6 5 5 6 6 6 6 7
3 7 8 10 10 9 9 10 8 12 10 11 11 11 14 15 13 11 5 5 5 4 5 6 8 8 8 6 3 6 7 7 5 6 4 5 6 8
8 8 8 9 8 8 8 9 10 10 12 9 10 12 12 13 16 11 10 5 4 4 4 3 4 4 5 7 3 12 5 6 4 4 6 6 5 7
7 9 8 8 9 9 9 9 10 10 10 10 10 10 12 12 15 17 12 11 6 2 2 1 3 4 6 6 4 3 9 2 1 5 4 2 1 2
8 7 8 8 9 8 9 9 10 9 10 10 9 10 11 11 11 13 14 15 14 9 5 3 2 6 3 5 4 3 3 12 7 2 1 3 3 3
6 6 6 7 8 8 9 9 10 11 11 10 11 10 10 9 9 11 12 13 12 11 9 6 5 4 4 3 3 4 3 2 8 18 17 7 0 3
8 4 6 7 8 8 9 9 9 10 10 10 10 11 11 10 10 5 7 10 10 12 11 12 7 8 8 8 8 7 9 6 3 7 9 13 14 15
Wind_Direction
273 271 270 272 265 262 268 254 266 288 287 283 259 259 277 272 256 231 255 269 256 257 259 283 259 257 258 262 252 238 235 226 233 228 234 241 248 252
272 264 267 272 263 261 259 263 247 262 280 283 268 248 263 283 269 238 235 239 249 250 255 254 245 237 236 239 246 243 241 233 233 226 228 229 234 239
275 269 272 272 268 263 258 257 261 247 274 284 278 272 258 268 277 273 249 240 244 244 248 250 249 246 249 244 230 238 235 235 232 225 229 225 224 228
279 282 280 287 272 257 249 255 257 263 257 277 286 282 255 262 257 270 276 256 244 255 253 235 238 239 237 245 236 234 230 232 224 221 227 219 217 217
271 281 277 276 277 279 259 254 260 259 255 262 274 273 254 255 273 270 269 269 262 260 261 264 244 246 239 239 234 231 231 230 218 218 218 215 213 208
266 267 271 268 264 269 268 261 262 260 258 254 268 277 261 252 232 269 285 268 272 268 263 259 252 248 248 249 242 236 230 225 221 218 217 215 212 204
267 267 271 270 273 265 263 267 261 252 257 257 262 263 252 262 235 239 259 283 277 253 276 267 251 256 250 247 250 242 233 229 218 217 213 209 205 201
275 275 277 285 282 270 266 266 256 254 260 249 261 256 264 236 242 247 264 274 283 248 254 270 251 267 266 231 227 229 231 224 216 208 205 199 203 200
277 282 285 287 289 284 277 271 269 258 242 247 250 249 258 224 238 250 246 252 260 267 277 275 259 261 257 259 240 238 240 222 211 205 203 195 196 195
294 289 286 288 282 276 280 276 270 263 251 252 244 257 252 261 236 250 253 259 265 255 240 265 264 260 253 238 234 239 225 204 204 208 205 196 190 186
309 302 290 289 289 301 296 279 293 293 282 267 264 260 261 256 253 263 256 254 264 262 234 243 254 264 239 253 236 224 220 203 209 205 196 194 195 177
316 298 285 292 293 300 309 297 290 283 287 291 286 277 267 261 249 239 236 238 242 269 234 238 244 217 268 228 230 214 210 214 208 212 193 185 166 165
300 296 287 281 290 311 259 257 245 273 292 281 284 284 283 273 263 251 239 234 234 240 236 212 226 216 225 265 280 181 175 144 175 180 183 175 174 180
290 290 293 296 306 313 312 272 267 272 265 287 302 294 301 291 267 250 239 233 229 241 238 234 243 216 218 215 233 156 184 176 161 163 170 177 186 186
287 291 295 297 311 305 313 312 317 298 317 313 299 292 302 296 280 256 245 242 229 226 234 233 241 232 219 222 219 191 145 217 190 161 159 158 179 174
304 305 289 285 282 269 304 322 309 304 301 299 300 301 314 315 298 241 228 222 216 220 227 224 234 228 220 225 227 221 184 190 187 190 176 180 181 185
306 345 341 17 28 12 351 346 332 326 325 322 320 317 328 332 331 262 221 214 221 217 221 207 216 219 223 217 216 222 211 208 199 172 179 200 211 177
7 26 15 16 17 355 350 345 341 338 334 328 320 321 337 335 335 336 232 224 228 217 193 198 202 207 211 214 206 219 213 217 204 188 181 174 202 196
43 24 25 11 4 355 346 345 337 333 328 329 325 329 326 339 347 354 353 315 219 212 207 194 175 165 181 213 132 41 244 208 170 195 200 198 213 199
36 29 15 8 4 354 346 342 338 336 338 333 333 332 327 336 351 2 358 354 331 206 184 192 206 185 192 189 155 104 22 265 246 211 175 89 343 132
21 25 11 12 5 352 345 340 333 332 332 330 337 334 335 329 347 359 355 1 17 19 21 27 324 257 97 99 89 105 62 41 52 359 142 161 179 196
10 13 5 7 7 354 347 340 335 340 341 338 336 331 331 333 328 352 354 1 9 24 14 351 5 42 53 50 84 101 108 81 78 64 52 42 352 227
345 13 13 9 5 359 350 344 341 336 336 334 331 328 328 330 341 340 348 356 7 18 13 13 8 62 74 76 80 81 75 54 28 39 46 35 57 58